Location: Melbourne
(37.8170°S, 144.9670°E)
Time: 00:00:16
(UTC+10:00)

Aureole 2 Rocket - Visible Passes

Search period start: 03 September 2014 00:00
Search period end: 13 September 2014 00:00
Orbit: 349 x 761 km, 73.9° (Epoch: 01 September)

Date Brightness Start Highest point End Pass type
(mag) Time Alt. Az. Time Alt. Az. Time Alt. Az.
03 Sep 3.5 04:54:17 10° SSW 04:58:51 69° ESE 05:03:52 10° NNE visible
03 Sep 2.5 18:51:50 10° NNW 18:54:43 64° WSW 18:57:52 10° SSE visible
04 Sep 3.2 04:51:17 10° SSW 04:55:55 86° ESE 05:01:00 10° NNE visible
04 Sep 3.3 18:48:53 10° NW 18:51:43 44° WSW 18:54:49 10° S visible
05 Sep 6.3 03:13:22 10° SE 03:15:04 12° ESE 03:16:50 10° E visible
05 Sep 3.1 04:48:40 12° SSW 04:52:57 77° WNW 04:58:02 10° NNE visible
05 Sep 4.1 18:45:58 10° NW 18:48:42 33° WSW 18:51:40 10° S visible
06 Sep 6.1 03:12:12 15° ESE 03:12:12 15° ESE 03:14:53 10° E visible
06 Sep 3.2 04:48:10 37° SW 04:49:55 62° WNW 04:54:58 10° N visible
06 Sep 4.7 18:43:06 10° WNW 18:45:39 25° WSW 18:48:26 10° S visible
07 Sep 6.2 03:11:56 12° E 03:11:56 12° E 03:12:34 10° ENE visible
07 Sep 3.8 04:47:55 42° NW 04:47:55 42° NW 04:51:48 10° N visible
07 Sep 5.1 18:40:17 10° WNW 18:42:35 19° WSW 18:45:05 10° SSW visible
08 Sep 5.4 04:47:38 15° NNW 04:47:38 15° NNW 04:48:32 10° N visible
08 Sep 5.4 18:37:32 10° W 18:39:30 16° WSW 18:41:36 10° SSW visible
09 Sep 5.6 18:34:57 10° W 18:36:24 12° WSW 18:37:54 10° SSW visible
